Preview of NWS' New Version of Forecast
This preview is not operational and should not be used for support decisions.

Regional Weather Roundup (RWR)

Issued by Kansas City/Pleasant Hill, MO (EAX)

                            
000
ASUS43 KEAX 170510
RWREAX

WEATHER ROUNDUP FOR EASTERN KANSAS AND NORTHWEST MISSOURI
NATIONAL WEATHER SERVICE KANSAS CITY/PLEASANT HILL MO
1100 PM CST SUN DEC 16 2018

KSZ040-057-103>105-MOZ028-029-037-043-170600-
...KANSAS CITY METROPOLITAN AREA...
  
CITY           SKY/WX    TMP DP  RH WIND       PRES   REMARKS
K.C. INTL      CLOUDY    38  27  64 W6        30.29S WCI  33          
K.C. DOWNTOWN  CLEAR     33  27  78 CALM      30.29S                  
LEES SUMMIT    CLOUDY    37  28  70 W6        30.29R WCI  32          
OLATHE - IXD   CLOUDY    35  28  75 NW5       30.30S WCI  31          
OLATHE - OJC   CLOUDY    37  28  70 NW3       30.29R                  
LAWRENCE       CLOUDY    24  20  84 NW5       30.31S WCI  18          

$$
 
MOZ001>008-011>017-020>025-030>033-038>040-044>046-053-054-170600-
...NORTHERN AND CENTRAL MISSOURI...
  
CITY           SKY/WX    TMP DP  RH WIND       PRES   REMARKS
ST. JOSEPH     CLOUDY    29  27  92 CALM      30.31R                  
MOSBY          PTCLDY    30  27  86 CALM      30.29S                  
WARRENSBURG    CLEAR     37  28  70 W5        30.28S WCI  34          
WHITEMAN AFB   CLEAR     40  29  65 NW8       30.23R WCI  34          
CLINTON        NOT AVBL                                               
SEDALIA        CLEAR     36  29  75 NW7       30.26F WCI  30          
WARSAW         NOT AVBL                                               
CHILLICOTHE      N/A     35  28  75 W3        30.29R                  
KIRKSVILLE     CLEAR     33  28  81 NW5       30.24S WCI  29          

$$

MOZ041-047>049-056>058-063>065-088>090-097-170600-
...EASTERN AND SOUTHERN MISSOURI...
  
CITY           SKY/WX    TMP DP  RH WIND       PRES   REMARKS
ST. LOUIS INTL CLEAR     38  29  70 W7        30.23R WCI  33          
SPIRIT OF STL  PTCLDY    33  28  81 CALM      30.22F                  
COLUMBIA       CLEAR     39  32  76 W7        30.24S WCI  34          
JEFFERSON CITY CLEAR     31  26  82 W3        30.25S                  
ROLLA          CLEAR     38  26  62 W3        30.24S                  
OSAGE BEACH    CLEAR     31  26  82 CALM      30.26S                  
SPRINGFIELD    CLEAR     32  23  69 SW5       30.26R WCI  27          
BRANSON        CLEAR     41  32  70 CALM      30.26F                  
JOPLIN         CLEAR     33  28  81 CALM      30.29R HAZE             
WEST PLAINS    CLEAR     40  25  55 NW5       30.24S                  

$$

IAZ060-094-KSZ022-034>040-054-083-096-NEZ052-066-093-170600- 
...KANSAS...SOUTHEAST NEBRASKA AND IOWA...
  
CITY           SKY/WX    TMP DP  RH WIND       PRES   REMARKS
TOPEKA         CLOUDY    30  24  78 CALM      30.30S                  
MANHATTAN      CLOUDY    30  23  75 CALM      30.32S                  
EMPORIA        CLOUDY    34  28  79 NW6       30.31S WCI  29          
CHANUTE        CLOUDY    32  27  81 CALM      30.30R                  
WICHITA        CLOUDY    35  29  78 N3        30.31R                  
OMAHA          CLEAR     28  24  85 E3        30.31R                  
LINCOLN        CLOUDY    24  21  88 CALM      30.31S                  
FALLS CITY       N/A     32  26  78 NW5       30.30S WCI  27          
LAMONI         CLOUDY    29  25  85 NW8       30.25S WCI  21          
DES MOINES     CLOUDY    29  27  92 NW7       30.26S WCI  22          

$$